Time,TemperatureF,DewpointF,PressureIn,WindDirection,WindDirectionDegrees,WindSpeedMPH,WindSpeedGustMPH,Humidity,HourlyPrecipIn,Conditions,Clouds,dailyrainin,SoftwareType,DateUTC
2013-07-27 00:08:00,61.6,57.0,29.93,WNW,303,0.0,4.0,85,0.00,,,0.67,weatherlink.com 1.10,2013-07-27 05:08:00,
2013-07-27 00:23:00,61.3,57.0,29.93,NW,304,0.0,4.0,86,0.00,,,0.67,weatherlink.com 1.10,2013-07-27 05:23:00,
2013-07-27 00:38:00,60.8,57.0,29.93,NW,304,4.0,4.0,87,0.00,,,0.67,weatherlink.com 1.10,2013-07-27 05:38:00,
2013-07-27 00:53:00,60.7,57.0,29.93,WNW,292,5.0,7.0,87,0.00,,,0.67,weatherlink.com 1.10,2013-07-27 05:53:00,
2013-07-27 01:08:00,60.8,57.0,29.93,WNW,292,7.0,7.0,87,0.00,,,0.67,weatherlink.com 1.10,2013-07-27 06:08:00,
2013-07-27 01:23:00,60.6,57.0,29.92,WNW,295,2.0,8.0,88,0.00,,,0.67,weatherlink.com 1.10,2013-07-27 06:23:00,
2013-07-27 01:39:00,60.4,57.0,29.92,West,277,3.0,10.0,88,0.00,,,0.67,weatherlink.com 1.10,2013-07-27 06:39:00,
2013-07-27 01:54:00,60.0,57.0,29.92,WNW,293,2.0,7.0,88,0.00,,,0.67,weatherlink.com 1.10,2013-07-27 06:54:00,
2013-07-27 02:09:00,59.9,57.0,29.92,WNW,296,7.0,9.0,89,0.00,,,0.67,weatherlink.com 1.10,2013-07-27 07:09:00,
2013-07-27 02:24:00,59.6,56.0,29.92,WNW,289,3.0,7.0,89,0.00,,,0.67,weatherlink.com 1.10,2013-07-27 07:24:00,
2013-07-27 02:39:00,59.1,56.0,29.92,WNW,284,4.0,6.0,90,0.00,,,0.67,weatherlink.com 1.10,2013-07-27 07:39:00,
2013-07-27 02:54:00,58.7,56.0,29.91,WNW,285,1.0,6.0,91,0.00,,,0.67,weatherlink.com 1.10,2013-07-27 07:54:00,
2013-07-27 03:09:00,58.5,56.0,29.92,WNW,288,3.0,6.0,91,0.00,,,0.67,weatherlink.com 1.10,2013-07-27 08:09:00,
2013-07-27 03:24:00,58.4,56.0,29.92,WNW,288,0.0,4.0,91,0.00,,,0.00,weatherlink.com 1.10,2013-07-27 08:24:00,
2013-07-27 03:39:00,58.2,56.0,29.92,WNW,289,2.0,5.0,92,0.00,,,0.00,weatherlink.com 1.10,2013-07-27 08:39:00,
2013-07-27 03:54:00,58.2,56.0,29.92,WNW,294,4.0,7.0,92,0.00,,,0.00,weatherlink.com 1.10,2013-07-27 08:54:00,
2013-07-27 04:09:00,58.0,56.0,29.92,WNW,292,0.0,6.0,92,0.00,,,0.00,weatherlink.com 1.10,2013-07-27 09:09:00,
2013-07-27 04:24:00,57.8,56.0,29.92,WNW,290,0.0,5.0,92,0.00,,,0.00,weatherlink.com 1.10,2013-07-27 09:24:00,
2013-07-27 04:39:00,57.7,55.0,29.93,WNW,298,0.0,5.0,92,0.00,,,0.00,weatherlink.com 1.10,2013-07-27 09:39:00,
2013-07-27 04:54:00,57.5,55.0,29.93,WNW,298,2.0,4.0,92,0.00,,,0.00,weatherlink.com 1.10,2013-07-27 09:54:00,
2013-07-27 05:09:00,57.2,55.0,29.93,WNW,300,1.0,5.0,92,0.00,,,0.00,weatherlink.com 1.10,2013-07-27 10:09:00,
2013-07-27 05:24:00,57.0,55.0,29.93,WNW,300,2.0,4.0,93,0.00,,,0.00,weatherlink.com 1.10,2013-07-27 10:24:00,
2013-07-27 05:39:00,56.8,55.0,29.94,WNW,299,1.0,5.0,93,0.00,,,0.00,weatherlink.com 1.10,2013-07-27 10:39:00,
2013-07-27 05:54:00,56.7,55.0,29.94,WNW,299,1.0,5.0,93,0.00,,,0.00,weatherlink.com 1.10,2013-07-27 10:54:00,
2013-07-27 06:09:00,56.7,55.0,29.95,WNW,298,0.0,5.0,93,0.00,,,0.00,weatherlink.com 1.10,2013-07-27 11:09:00,
2013-07-27 06:24:00,56.9,55.0,29.95,WNW,302,0.0,4.0,93,0.00,,,0.00,weatherlink.com 1.10,2013-07-27 11:24:00,
2013-07-27 06:39:00,56.9,55.0,29.95,WNW,300,1.0,5.0,93,0.00,,,0.00,weatherlink.com 1.10,2013-07-27 11:39:00,
2013-07-27 06:54:00,57.5,56.0,29.95,WNW,292,1.0,4.0,93,0.00,,,0.00,weatherlink.com 1.10,2013-07-27 11:54:00,
2013-07-27 07:09:00,57.9,56.0,29.95,NW,309,4.0,7.0,93,0.00,,,0.00,weatherlink.com 1.10,2013-07-27 12:09:00,
2013-07-27 07:24:00,58.2,56.0,29.96,NW,311,3.0,6.0,93,0.00,,,0.00,weatherlink.com 1.10,2013-07-27 12:24:00,
2013-07-27 07:39:00,58.9,57.0,29.96,NW,313,5.0,7.0,92,0.00,,,0.00,weatherlink.com 1.10,2013-07-27 12:39:00,
2013-07-27 07:54:00,59.4,57.0,29.96,WNW,295,5.0,8.0,91,0.00,,,0.00,weatherlink.com 1.10,2013-07-27 12:54:00,
2013-07-27 08:09:00,60.0,57.0,29.96,NNW,337,3.0,9.0,90,0.00,,,0.00,weatherlink.com 1.10,2013-07-27 13:09:00,
2013-07-27 08:24:00,60.3,57.0,29.97,NNW,331,5.0,10.0,88,0.00,,,0.00,weatherlink.com 1.10,2013-07-27 13:24:00,
2013-07-27 08:39:00,60.5,57.0,29.97,WNW,302,5.0,14.0,88,0.00,,,0.00,weatherlink.com 1.10,2013-07-27 13:39:00,
2013-07-27 08:54:00,60.8,56.0,29.97,NNW,333,2.0,9.0,85,0.00,,,0.00,weatherlink.com 1.10,2013-07-27 13:54:00,
2013-07-27 09:09:00,62.2,57.0,29.96,NNW,336,4.0,10.0,84,0.00,,,0.00,weatherlink.com 1.10,2013-07-27 14:09:00,
2013-07-27 09:24:00,61.8,56.0,29.96,WNW,292,5.0,13.0,82,0.00,,,0.00,weatherlink.com 1.10,2013-07-27 14:24:00,
2013-07-27 09:39:00,63.1,57.0,29.96,NNW,331,8.0,13.0,79,0.00,,,0.00,weatherlink.com 1.10,2013-07-27 14:39:00,
2013-07-27 09:54:00,62.4,55.0,29.96,NW,322,9.0,12.0,76,0.00,,,0.00,weatherlink.com 1.10,2013-07-27 14:54:00,
2013-07-27 10:09:00,63.7,54.0,29.96,NW,321,10.0,14.0,70,0.00,,,0.00,weatherlink.com 1.10,2013-07-27 15:09:00,
2013-07-27 10:24:00,64.9,53.0,29.95,NNW,335,6.0,16.0,66,0.00,,,0.00,weatherlink.com 1.10,2013-07-27 15:24:00,
2013-07-27 10:39:00,64.3,52.0,29.96,NW,325,5.0,13.0,65,0.00,,,0.00,weatherlink.com 1.10,2013-07-27 15:39:00,
2013-07-27 10:54:00,64.6,50.0,29.95,NW,318,4.0,19.0,60,0.00,,,0.00,weatherlink.com 1.10,2013-07-27 15:54:00,
2013-07-27 11:09:00,65.0,52.0,29.95,NW,311,10.0,14.0,63,0.00,,,0.00,weatherlink.com 1.10,2013-07-27 16:09:00,
2013-07-27 11:24:00,64.6,51.0,29.96,WSW,254,8.0,18.0,62,0.00,,,0.00,weatherlink.com 1.10,2013-07-27 16:24:00,
2013-07-27 11:39:00,63.9,52.0,29.96,WNW,299,8.0,15.0,65,0.00,,,0.00,weatherlink.com 1.10,2013-07-27 16:39:00,
2013-07-27 11:55:00,64.2,51.0,29.96,West,279,12.0,18.0,62,0.00,,,0.00,weatherlink.com 1.10,2013-07-27 16:55:00,
2013-07-27 12:10:00,65.5,50.0,29.95,WNW,298,10.0,16.0,58,0.00,,,0.00,weatherlink.com 1.10,2013-07-27 17:10:00,
2013-07-27 12:25:00,65.8,50.0,29.95,NW,319,5.0,13.0,58,0.00,,,0.00,weatherlink.com 1.10,2013-07-27 17:25:00,
2013-07-27 12:40:00,65.2,51.0,29.95,WNW,292,5.0,21.0,61,0.00,,,0.00,weatherlink.com 1.10,2013-07-27 17:40:00,
2013-07-27 12:55:00,65.3,52.0,29.95,WNW,296,9.0,15.0,63,0.00,,,0.00,weatherlink.com 1.10,2013-07-27 17:55:00,
2013-07-27 13:10:00,65.3,52.0,29.95,WNW,284,11.0,16.0,62,0.00,,,0.00,weatherlink.com 1.10,2013-07-27 18:10:00,
2013-07-27 13:25:00,64.8,51.0,29.96,WNW,282,6.0,18.0,62,0.00,,,0.00,weatherlink.com 1.10,2013-07-27 18:25:00,
2013-07-27 13:40:00,65.2,52.0,29.96,NW,317,8.0,22.0,62,0.00,,,0.00,weatherlink.com 1.10,2013-07-27 18:40:00,
2013-07-27 13:55:00,66.1,50.0,29.96,NW,322,5.0,17.0,57,0.00,,,0.00,weatherlink.com 1.10,2013-07-27 18:55:00,
2013-07-27 14:10:00,65.4,51.0,29.96,NW,311,6.0,20.0,59,0.00,,,0.00,weatherlink.com 1.10,2013-07-27 19:10:00,
2013-07-27 14:25:00,67.0,50.0,29.95,WNW,293,0.0,17.0,55,0.00,,,0.00,weatherlink.com 1.10,2013-07-27 19:25:00,
2013-07-27 14:40:00,67.6,49.0,29.96,NW,305,15.0,17.0,52,0.00,,,0.00,weatherlink.com 1.10,2013-07-27 19:40:00,
2013-07-27 14:55:00,66.7,50.0,29.95,NW,307,8.0,14.0,56,0.00,,,0.00,weatherlink.com 1.10,2013-07-27 19:55:00,
2013-07-27 15:10:00,67.4,51.0,29.95,NW,317,8.0,18.0,55,0.00,,,0.00,weatherlink.com 1.10,2013-07-27 20:10:00,
2013-07-27 15:25:00,67.7,50.0,29.95,NW,311,7.0,15.0,53,0.00,,,0.00,weatherlink.com 1.10,2013-07-27 20:25:00,
2013-07-27 15:40:00,66.8,50.0,29.95,NNW,342,2.0,18.0,56,0.00,,,0.00,weatherlink.com 1.10,2013-07-27 20:40:00,
2013-07-27 15:55:00,68.3,49.0,29.95,NNW,333,5.0,13.0,50,0.00,,,0.00,weatherlink.com 1.10,2013-07-27 20:55:00,
2013-07-27 16:10:00,68.0,50.0,29.95,NNW,338,9.0,14.0,53,0.00,,,0.00,weatherlink.com 1.10,2013-07-27 21:10:00,
2013-07-27 16:25:00,68.2,50.0,29.95,NW,312,6.0,18.0,52,0.00,,,0.00,weatherlink.com 1.10,2013-07-27 21:25:00,
2013-07-27 16:40:00,66.9,49.0,29.95,NNW,333,3.0,12.0,53,0.00,,,0.00,weatherlink.com 1.10,2013-07-27 21:40:00,
2013-07-27 16:55:00,67.9,49.0,29.95,NW,309,8.0,14.0,52,0.00,,,0.00,weatherlink.com 1.10,2013-07-27 21:55:00,
2013-07-27 17:10:00,67.9,49.0,29.95,WNW,295,9.0,15.0,52,0.00,,,0.00,weatherlink.com 1.10,2013-07-27 22:10:00,
2013-07-27 17:25:00,67.4,49.0,29.95,NNW,335,12.0,13.0,52,0.00,,,0.00,weatherlink.com 1.10,2013-07-27 22:25:00,
2013-07-27 17:40:00,67.3,50.0,29.95,NNW,346,2.0,12.0,54,0.00,,,0.00,weatherlink.com 1.10,2013-07-27 22:40:00,
2013-07-27 17:55:00,68.8,50.0,29.94,NW,323,7.0,10.0,51,0.00,,,0.00,weatherlink.com 1.10,2013-07-27 22:55:00,
2013-07-27 18:10:00,68.8,49.0,29.94,WNW,302,3.0,14.0,50,0.00,,,0.00,weatherlink.com 1.10,2013-07-27 23:10:00,
2013-07-27 18:25:00,68.7,50.0,29.94,NNW,329,4.0,11.0,51,0.00,,,0.00,weatherlink.com 1.10,2013-07-27 23:25:00,
2013-07-27 18:40:00,68.6,51.0,29.94,NNW,329,5.0,11.0,53,0.00,,,0.00,weatherlink.com 1.10,2013-07-27 23:40:00,
2013-07-27 18:55:00,66.5,49.0,29.95,NW,312,6.0,11.0,54,0.00,,,0.00,weatherlink.com 1.10,2013-07-27 23:55:00,
2013-07-27 19:10:00,66.3,50.0,29.95,NW,325,4.0,8.0,56,0.00,,,0.00,weatherlink.com 1.10,2013-07-28 00:10:00,
2013-07-27 19:25:00,65.4,51.0,29.95,NW,325,6.0,15.0,59,0.00,,,0.00,weatherlink.com 1.10,2013-07-28 00:25:00,
2013-07-27 19:40:00,65.3,51.0,29.95,NNW,331,4.0,8.0,61,0.00,,,0.00,weatherlink.com 1.10,2013-07-28 00:40:00,
2013-07-27 19:55:00,64.0,51.0,29.95,NNW,331,0.0,3.0,64,0.00,,,0.00,weatherlink.com 1.10,2013-07-28 00:55:00,
2013-07-27 20:10:00,62.4,52.0,29.95,NW,310,1.0,4.0,68,0.00,,,0.00,weatherlink.com 1.10,2013-07-28 01:10:00,
2013-07-27 20:25:00,60.8,52.0,29.95,NW,310,0.0,4.0,72,0.00,,,0.00,weatherlink.com 1.10,2013-07-28 01:25:00,
2013-07-27 20:40:00,60.0,52.0,29.95,NW,310,0.0,1.0,74,0.00,,,0.00,weatherlink.com 1.10,2013-07-28 01:40:00,
2013-07-27 20:55:00,59.5,52.0,29.96,NW,310,0.0,2.0,75,0.00,,,0.00,weatherlink.com 1.10,2013-07-28 01:55:00,
2013-07-27 21:10:00,59.0,51.0,29.95,NW,310,0.0,3.0,75,0.00,,,0.00,weatherlink.com 1.10,2013-07-28 02:10:00,
2013-07-27 21:25:00,58.6,51.0,29.95,NW,310,1.0,4.0,76,0.00,,,0.00,weatherlink.com 1.10,2013-07-28 02:25:00,
2013-07-27 21:40:00,58.6,51.0,29.96,NW,310,0.0,1.0,75,0.00,,,0.00,weatherlink.com 1.10,2013-07-28 02:40:00,
2013-07-27 21:55:00,58.3,51.0,29.96,NW,310,0.0,1.0,76,0.00,,,0.00,weatherlink.com 1.10,2013-07-28 02:55:00,
2013-07-27 22:10:00,57.8,51.0,29.97,NW,310,1.0,2.0,77,0.00,,,0.00,weatherlink.com 1.10,2013-07-28 03:10:00,
2013-07-27 22:25:00,57.6,51.0,29.96,NW,310,1.0,5.0,78,0.00,,,0.00,weatherlink.com 1.10,2013-07-28 03:25:00,
2013-07-27 22:40:00,57.3,51.0,29.96,WNW,293,0.0,5.0,78,0.00,,,0.00,weatherlink.com 1.10,2013-07-28 03:40:00,
2013-07-27 22:55:00,57.3,51.0,29.96,WSW,244,2.0,6.0,78,0.00,,,0.00,weatherlink.com 1.10,2013-07-28 03:55:00,
2013-07-27 23:10:00,57.2,50.0,29.96,WSW,240,1.0,5.0,78,0.00,,,0.00,weatherlink.com 1.10,2013-07-28 04:10:00,
2013-07-27 23:25:00,57.1,50.0,29.96,WSW,250,2.0,6.0,77,0.00,,,0.00,weatherlink.com 1.10,2013-07-28 04:25:00,
2013-07-27 23:40:00,57.2,50.0,29.96,WNW,287,3.0,5.0,77,0.00,,,0.00,weatherlink.com 1.10,2013-07-28 04:40:00,
2013-07-27 23:55:00,57.4,50.0,29.96,West,270,1.0,5.0,76,0.00,,,0.00,weatherlink.com 1.10,2013-07-28 04:55:00,